User: anonymous   Login
Location: Unspecified
(0.0000°N, 0.0000°E)
Time: 11:03:57
(UTC+01:00)
Language:

Cosmos 540 Rocket - Orbit

View from above orbital plane
View from above orbital plane
View from above satellite
View from above satellite

Ground track
Ground track

The orbit data is extracted from the following two-line orbital elements,

1 06324U 72104B   14352.50582145  .00000509  00000-0  15950-3 0  4301
2 06324 074.0775 355.1897 0009375 000.5830 158.4519 14.43062949204051
Epoch (UTC): 18 December 2014 12:08:22
Eccentricity: 0.0009375
inclination: 74.0775°
perigee height: 742 km
apogee height: 755 km
right ascension of ascending node: 355.1897°
argument of perigee: 0.5830°
revolutions per day: 14.43062949
mean anomaly at epoch: 158.4519°
orbit number at epoch: 20405

The dashed part of the orbit path shows where the satellite is in the earth's shadow,  

DLR